Weather History for Naples, FL

Change the Weather History Date:

Sunday, February 17, 2013

  Actual Average Record
Temperature  
Mean Temperature 52 °F 67 °F  
Max Temperature 61 °F 77 °F 87 °F (1981)
Min Temperature 43 °F 57 °F 32 °F (1996)
Degree Days  
Heating Degree Days 13 2  
Month to date heating degree days 28 34  
Since 1 July heating degree days 86 214  
Cooling Degree Days 0 4  
Month to date cooling degree days 64 58  
Year to date cooling degree days 257 144  
Growing Degree Days 2 (Base 50)    
Moisture  
Dew Point 27 °F    
Average Humidity 41    
Maximum Humidity 58    
Minimum Humidity 23    
Precipitation  
Precipitation 0.00 in 0.09 in 1.68 in (1998)
Month to date precipitation 1.60 1.32  
Year to date precipitation 1.75 3.17  
Snow  
Snow 0.00 in - - ()
Month to date snowfall 0.0  
Since 1 July snowfall 0.0  
Snow Depth 0.00 in    
Sea Level Pressure  
Sea Level Pressure 30.24 in    
Wind  
Wind Speed 10 mph (NNE)    
Max Wind Speed 21 mph    
Max Gust Speed 30 mph    
Visibility 10 miles    
Events      
T = Trace of Precipitation, MM = Missing Value Source: NWS Daily Summary

Daily Weather History Graph

Daily Weather History Graph

Search for Another Location

Airport:

Trip Planner

Search our weather history database for the weather conditions in past years. The results will help you decide how hot, cold, wet, or windy it might be!

Date:

Astronomy

Feb. 17, 2013 Rise Set
Actual Time 7:00 AM EST 6:21 PM EST
Civil Twilight 6:37 AM EST 6:45 PM EST
Nautical Twilight 6:10 AM EST 7:12 PM EST
Astronomical Twilight 5:43 AM EST 7:39 PM EST
Moon 11:38 AM EST (2/17) 12:32 AM EST (2/17)
Length of Visible Light 12h 07m
Length of Day
11h 20m
Waxing Crescent, 49% of the Moon is Illuminated
Feb 17
Waxing Crescent
Feb 17
First Quarter
Feb 25
Full
Mar 4
Last Quarter
Mar 11
New

Hourly Weather History & Observations

Time (EST) Temp. Windchill Dew Point Humidity Pressure Visibility Wind Dir Wind Speed Gust Speed Precip Events Conditions
12:53 AM 60.1 °F - 39.9 °F 47% 30.12 in 10.0 mi NW 13.8 mph 28.8 mph N/A   Overcast
1:53 AM 60.1 °F - 41.0 °F 49% 30.12 in 10.0 mi NNW 13.8 mph 25.3 mph N/A   Mostly Cloudy
2:53 AM 57.0 °F - 39.0 °F 51% 30.12 in 10.0 mi North 11.5 mph 18.4 mph N/A   Overcast
3:53 AM 52.0 °F - 32.0 °F 47% 30.14 in 10.0 mi NNE 17.3 mph 26.5 mph N/A   Mostly Cloudy
4:53 AM 48.9 °F - 28.0 °F 44% 30.17 in 10.0 mi NNE 10.4 mph 27.6 mph N/A   Clear
5:53 AM 46.9 °F - 23.0 °F 39% 30.19 in 10.0 mi NNE 10.4 mph 16.1 mph N/A   Clear
6:53 AM 45.0 °F 39.7 °F 19.0 °F 36% 30.22 in 10.0 mi NNE 10.4 mph - N/A   Clear
7:53 AM 45.0 °F 38.9 °F 19.0 °F 36% 30.25 in 10.0 mi NNE 12.7 mph - N/A   Clear
8:53 AM 48.0 °F - 18.0 °F 30% 30.27 in 10.0 mi NNE 15.0 mph 21.9 mph N/A   Clear
9:53 AM 50.0 °F - 19.9 °F 31% 30.29 in 10.0 mi NNE 13.8 mph 23.0 mph N/A   Clear
10:53 AM 52.0 °F - 24.1 °F 34% 30.31 in 10.0 mi NNE 12.7 mph 21.9 mph N/A   Clear
11:53 AM 54.0 °F - 26.1 °F 34% 30.31 in 10.0 mi North 11.5 mph 21.9 mph N/A   Clear
12:53 PM 55.9 °F - 25.0 °F 30% 30.28 in 10.0 mi NNE 11.5 mph 23.0 mph N/A   Clear
1:53 PM 57.9 °F - 25.0 °F 28% 30.27 in 10.0 mi North 10.4 mph - N/A   Clear
2:53 PM 57.9 °F - 21.9 °F 25% 30.26 in 10.0 mi North 11.5 mph - N/A   Clear
3:53 PM 59.0 °F - 24.1 °F 26% 30.25 in 10.0 mi NNE 6.9 mph - N/A   Clear
4:53 PM 59.0 °F - 21.9 °F 24% 30.26 in 10.0 mi NNE 6.9 mph - N/A   Clear
5:53 PM 57.0 °F - 23.0 °F 27% 30.26 in 10.0 mi North 5.8 mph - N/A   Clear
6:53 PM 54.0 °F - 25.0 °F 33% 30.27 in 10.0 mi NNE 3.5 mph - N/A   Clear
7:53 PM 51.1 °F - 28.9 °F 43% 30.29 in 10.0 mi NE 3.5 mph - N/A   Clear
8:53 PM 48.9 °F - 28.9 °F 46% 30.30 in 10.0 mi ENE 3.5 mph - N/A   Clear
9:53 PM 46.0 °F 44.8 °F 28.9 °F 51% 30.32 in 10.0 mi NE 3.5 mph - N/A   Clear
10:53 PM 45.0 °F 43.5 °F 30.9 °F 58% 30.33 in 10.0 mi NE 3.5 mph - N/A   Clear